EW5954 Weather Reports


Display with metric or nautical units.
time (UTC)temp
F
wind
direction
speed
MPH
gust
MPH
rain 1hr
in
rain 24hr
in
rain mn
in
humidity
%
barometer
mb
20260502161656 45 347 0.0 2.0 0.00 0.00 0.00 57
20260502161152 46 192 4.0 6.0 0.00 0.00 0.00 57
20260502160651 44 347 1.0 5.0 0.00 0.00 0.00 61
20260502160150 44 4 1.0 2.0 0.00 0.00 0.00 64
20260502152103 41 43 1.0 3.0 0.00 0.00 0.00 75
20260502151600 42 6 1.0 3.0 0.00 0.00 0.00 73
20260502151058 42 349 1.0 2.0 0.00 0.00 0.00 72
20260502150555 42 342 2.0 5.0 0.00 0.00 0.00 71
20260502130440 39 45 1.0 7.0 0.00 0.00 0.00 75
20260502123423 39 14 1.0 5.0 0.00 0.00 0.00 75
20260502122920 38 30 3.0 8.0 0.00 0.00 0.00 76
20260502122416 38 25 1.0 5.0 0.00 0.00 0.00 76
20260502121914 37 30 0.0 6.0 0.00 0.00 0.00 77
20260502121411 37 92 1.0 7.0 0.00 0.00 0.00 77
20260502120909 37 58 3.0 7.0 0.00 0.00 0.00 77
20260502120404 37 304 3.0 7.0 0.00 0.00 0.00 78
20260502115902 37 337 3.0 6.0 0.00 0.00 0.00 78
20260502115359 36 9 0.0 3.0 0.00 0.00 0.00 78
20260502114855 36 319 1.0 3.0 0.00 0.00 0.00 79
20260502114352 36 45 1.0 6.0 0.00 0.00 0.00 79
20260502113849 35 53 1.0 5.0 0.00 0.00 0.00 79
20260502113347 35 68 4.0 6.0 0.00 0.00 0.00 79
20260502112845 35 0 3.0 6.0 0.00 0.00 0.00 79
20260502112342 35 49 5.0 6.0 0.00 0.00 0.00 80
20260502111839 34 35 2.0 5.0 0.00 0.00 0.00 80
20260502111337 34 340 2.0 9.0 0.00 0.00 0.00 80
20260502110834 34 103 6.0 9.0 0.00 0.00 0.00 81
20260502110332 34 4 2.0 5.0 0.00 0.00 0.00 80
20260502105829 33 51 2.0 8.0 0.00 0.00 0.00 81
20260502105326 33 21 1.0 5.0 0.00 0.00 0.00 82
20260502104824 33 18 2.0 2.0 0.00 0.00 0.00 82
20260502104321 33 31 2.0 3.0 0.00 0.00 0.00 83
20260502103818 33 19 0.0 2.0 0.00 0.00 0.00 83
20260502103315 33 353 1.0 2.0 0.00 0.00 0.00 83
20260502102813 33 14 0.0 2.0 0.00 0.00 0.00 83
20260502102309 33 11 2.0 3.0 0.00 0.00 0.00 83
20260502101807 33 48 1.0 3.0 0.00 0.00 0.00 83
20260502101305 33 358 0.0 5.0 0.00 0.00 0.00 84
20260502100803 33 100 2.0 3.0 0.00 0.00 0.00 84
20260502100302 33 9 3.0 3.0 0.00 0.00 0.00 84
20260502091235 33 47 3.0 5.0 0.00 0.00 0.00 84
20260502090733 33 15 1.0 3.0 0.00 0.00 0.00 84
20260502090229 33 61 0.0 2.0 0.00 0.00 0.00 84
20260502071130 33 56 4.0 7.0 0.00 0.00 0.00 84
20260502070628 33 82 1.0 5.0 0.00 0.00 0.00 84
20260502070126 33 83 1.0 2.0 0.00 0.00 0.00 85
20260502065624 33 144 3.0 5.0 0.00 0.00 0.00 85
20260502065121 33 346 3.0 6.0 0.00 0.00 0.00 85
20260502064620 33 24 3.0 6.0 0.00 0.00 0.00 85
20260502064117 33 25 3.0 5.0 0.00 0.00 0.00 85
20260502063614 33 279 1.0 5.0 0.00 0.00 0.00 85
20260502063112 33 342 1.0 3.0 0.00 0.00 0.00 85
20260502062609 33 21 0.0 5.0 0.00 0.00 0.00 85
20260502062106 33 261 1.0 2.0 0.00 0.00 0.00 85
20260502061604 33 17 1.0 5.0 0.00 0.00 0.00 85
20260502061101 34 329 1.0 1.0 0.00 0.00 0.00 85
20260502060556 34 42 2.0 6.0 0.00 0.00 0.00 85
20260502060053 34 67 0.0 2.0 0.00 0.00 0.00 85
20260502055551 34 3 1.0 3.0 0.00 0.00 0.00 85
20260502055049 34 50 2.0 5.0 0.00 0.00 0.00 84
20260502054548 34 29 2.0 5.0 0.00 0.00 0.00 84
20260502054044 34 341 0.0 1.0 0.00 0.00 0.00 84
20260502053541 34 18 0.0 2.0 0.00 0.00 0.00 83
20260502053039 34 22 2.0 3.0 0.00 0.00 0.00 83
20260502052538 34 35 3.0 6.0 0.00 0.00 0.00 83
20260502052035 35 35 2.0 3.0 0.00 0.00 0.00 83
20260502051533 35 22 2.0 5.0 0.00 0.00 0.00 82
20260502051030 35 46 2.0 6.0 0.00 0.00 0.00 82
20260502050526 35 52 1.0 7.0 0.00 0.00 0.00 82
20260502050024 35 44 2.0 2.0 0.00 0.00 0.00 82
20260502045520 35 17 1.0 5.0 0.00 0.00 0.00 82
20260502045017 35 0 1.0 2.0 0.00 0.00 0.00 81
20260502044514 35 16 1.0 2.0 0.00 0.00 0.00 81
20260502044010 35 14 0.0 1.0 0.00 0.00 0.00 80
20260502043508 35 33 2.0 2.0 0.00 0.00 0.00 80
20260502043004 35 8 0.0 2.0 0.00 0.00 0.00 80
20260502042459 35 32 1.0 2.0 0.00 0.00 0.00 80
20260502041957 35 11 0.0 3.0 0.00 0.00 0.00 79
20260502041455 35 50 2.0 2.0 0.00 0.00 0.00 79
20260502040951 35 0 0.0 2.0 0.00 0.00 0.00 78
20260502040448 35 25 1.0 1.0 0.00 0.00 0.00 78
20260502035944 35 12 0.0 2.0 0.00 0.00 0.00 78
20260502035440 36 353 0.0 1.0 0.00 0.00 0.00 77
20260502034938 36 6 0.0 0.0 0.00 0.00 0.00 77
20260502034437 36 18 0.0 0.0 0.00 0.00 0.00 76
20260502033935 36 12 0.0 0.0 0.00 0.00 0.00 76
20260502033432 36 3 0.0 0.0 0.00 0.00 0.00 75
20260502032928 37 62 0.0 2.0 0.00 0.00 0.00 75
20260502032425 37 358 1.0 2.0 0.00 0.00 0.00 75
20260502031922 37 37 0.0 2.0 0.00 0.00 0.00 74
20260502031421 37 38 2.0 2.0 0.00 0.00 0.00 74
20260502030919 37 9 1.0 2.0 0.00 0.00 0.00 74
20260502030417 37 12 1.0 3.0 0.00 0.00 0.00 74
20260502025914 37 54 3.0 3.0 0.00 0.00 0.00 73
20260502025411 37 10 1.0 6.0 0.00 0.00 0.00 73
20260502024909 37 358 2.0 5.0 0.00 0.00 0.00 72
20260502024407 37 45 3.0 3.0 0.00 0.00 0.00 72
20260502023904 38 59 2.0 3.0 0.00 0.00 0.00 72
20260502023402 38 70 1.0 5.0 0.00 0.00 0.00 71
20260502022859 38 21 0.0 3.0 0.00 0.00 0.00 71
20260502022355 38 15 1.0 2.0 0.00 0.00 0.00 71
20260502021852 38 79 1.0 3.0 0.00 0.00 0.00 71
20260502021350 38 30 2.0 3.0 0.00 0.00 0.00 70
20260502020847 39 83 1.0 7.0 0.00 0.00 0.00 70
20260502020344 39 2 2.0 6.0 0.00 0.00 0.00 69
20260502015841 39 46 2.0 2.0 0.00 0.00 0.00 69
20260502015338 39 5 2.0 6.0 0.00 0.00 0.00 69
20260502014836 39 40 1.0 6.0 0.00 0.00 0.00 68
20260502014333 39 69 3.0 7.0 0.00 0.00 0.00 68
20260502013828 40 332 3.0 8.0 0.00 0.00 0.00 67
20260502013324 40 47 4.0 7.0 0.00 0.00 0.00 66
20260502012821 40 61 4.0 8.0 0.00 0.00 0.00 65
20260502012319 40 38 5.0 9.0 0.00 0.00 0.00 64
20260502011816 41 61 4.0 8.0 0.00 0.00 0.00 64
20260502011312 41 39 6.0 8.0 0.00 0.00 0.00 65
20260502010809 42 40 2.0 11.0 0.00 0.00 0.00 64
20260502010306 42 2 3.0 8.0 0.00 0.00 0.00 61
20260502005803 42 43 2.0 8.0 0.00 0.00 0.00 59
20260502005301 43 109 3.0 8.0 0.00 0.00 0.00 58
20260502004757 43 37 7.0 9.0 0.00 0.00 0.00 57
20260502004253 43 3 4.0 8.0 0.00 0.00 0.00 56
20260502003752 43 36 5.0 7.0 0.00 0.00 0.00 55
20260502003248 44 78 3.0 8.0 0.00 0.00 0.00 54
20260502002738 44 83 2.0 10.0 0.00 0.00 0.00 53
20260502002236 44 41 4.0 9.0 0.00 0.00 0.00 53
20260502001733 44 54 3.0 7.0 0.00 0.00 0.00 52
20260502001231 45 54 4.0 9.0 0.00 0.00 0.00 51
20260502000729 45 14 3.0 9.0 0.00 0.00 0.00 51
20260502000227 46 14 0.0 7.0 0.00 0.00 0.00 51
20260501235722 46 14 1.0 6.0 0.00 0.00 0.00 51
20260501235218 46 65 4.0 8.0 0.00 0.00 0.00 50
20260501234714 46 110 3.0 9.0 0.00 0.00 0.00 49
20260501234211 47 5 2.0 9.0 0.00 0.00 0.00 49
20260501233709 47 41 6.0 9.0 0.00 0.00 0.00 49
20260501233206 48 137 5.0 11.0 0.00 0.00 0.00 48
20260501232702 49 353 2.0 6.0 0.00 0.00 0.00 46
20260501232159 49 73 3.0 8.0 0.00 0.00 0.00 46
20260501231657 49 66 2.0 7.0 0.00 0.00 0.00 46
20260501231155 49 15 1.0 7.0 0.00 0.00 0.00 47
20260501230653 50 18 4.0 7.0 0.00 0.00 0.00 46
20260501230151 49 64 2.0 6.0 0.00 0.00 0.00 46
20260501225648 49 22 2.0 3.0 0.00 0.00 0.00 48
20260501225144 49 33 3.0 8.0 0.00 0.00 0.00 47
20260501224641 48 53 2.0 8.0 0.00 0.00 0.00 48
20260501224139 49 2 1.0 7.0 0.00 0.00 0.00 48
20260501223635 49 74 2.0 9.0 0.00 0.00 0.00 48
20260501223132 49 13 5.0 11.0 0.00 0.00 0.00 47
20260501222627 49 64 2.0 6.0 0.00 0.00 0.00 47
20260501222125 49 301 4.0 6.0 0.00 0.00 0.00 47
20260501221621 49 21 3.0 8.0 0.00 0.00 0.00 47
20260501221119 49 48 2.0 6.0 0.00 0.00 0.00 47
20260501220617 50 317 4.0 6.0 0.00 0.00 0.00 47
20260501220113 49 353 4.0 9.0 0.00 0.00 0.00 47
20260501215610 49 57 3.0 6.0 0.00 0.00 0.00 47
20260501215105 49 71 3.0 6.0 0.00 0.00 0.00 47
20260501214601 49 50 2.0 7.0 0.00 0.00 0.00 47
20260501214056 49 93 6.0 8.0 0.00 0.00 0.00 48
20260501213553 50 64 2.0 10.0 0.00 0.00 0.00 47
20260501213050 50 38 2.0 7.0 0.00 0.00 0.00 46
20260501212546 50 355 3.0 9.0 0.00 0.00 0.00 46
20260501212043 50 48 3.0 10.0 0.00 0.00 0.00 45
20260501211539 50 51 4.0 8.0 0.00 0.00 0.00 45
20260501211038 50 35 3.0 9.0 0.00 0.00 0.00 44
20260501210533 50 45 3.0 8.0 0.00 0.00 0.00 44
20260501210031 50 69 5.0 7.0 0.00 0.00 0.00 43
20260501205527 50 59 2.0 6.0 0.00 0.00 0.00 44
20260501205025 50 61 2.0 5.0 0.00 0.00 0.00 44
20260501204521 50 36 1.0 7.0 0.00 0.00 0.00 44
20260501204017 50 4 1.0 3.0 0.00 0.00 0.00 44
20260501203514 50 74 5.0 6.0 0.00 0.00 0.00 43
20260501203012 51 146 2.0 8.0 0.00 0.00 0.00 44
20260501202508 51 106 4.0 6.0 0.00 0.00 0.00 44
20260501202004 51 340 6.0 8.0 0.00 0.00 0.00 42
20260501201502 51 70 1.0 5.0 0.00 0.00 0.00 42
20260501200958 51 30 3.0 7.0 0.00 0.00 0.00 41
20260501200456 51 99 1.0 3.0 0.00 0.00 0.00 41
20260501195953 51 21 4.0 9.0 0.00 0.00 0.00 41
20260501195450 51 38 1.0 3.0 0.00 0.00 0.00 41
20260501194945 51 356 1.0 5.0 0.00 0.00 0.00 41
20260501194441 51 17 1.0 5.0 0.00 0.00 0.00 41
20260501193937 51 39 3.0 6.0 0.00 0.00 0.00 40
20260501193436 51 73 2.0 7.0 0.00 0.00 0.00 40
20260501192933 51 355 1.0 6.0 0.00 0.00 0.00 42
20260501192430 51 9 2.0 6.0 0.00 0.00 0.00 42
20260501191927 52 82 4.0 6.0 0.00 0.00 0.00 41
20260501191424 52 41 6.0 9.0 0.00 0.00 0.00 40
20260501190921 52 40 2.0 8.0 0.00 0.00 0.00 41
20260501190417 52 347 3.0 5.0 0.00 0.00 0.00 40
20260501185917 52 48 1.0 5.0 0.00 0.00 0.00 39
20260501185414 52 29 0.0 7.0 0.00 0.00 0.00 39
20260501184910 53 339 0.0 3.0 0.00 0.00 0.00 38
20260501184406 52 89 2.0 6.0 0.00 0.00 0.00 39
20260501183901 53 34 1.0 6.0 0.00 0.00 0.00 37
20260501183359 52 17 2.0 3.0 0.00 0.00 0.00 38
20260501182855 53 67 3.0 6.0 0.00 0.00 0.00 37
20260501182352 53 109 1.0 2.0 0.00 0.00 0.00 38
20260501181849 53 67 0.0 3.0 0.00 0.00 0.00 37
20260501181346 53 4 2.0 6.0 0.00 0.00 0.00 36
20260501180844 53 37 1.0 3.0 0.00 0.00 0.00 35
20260501180339 53 3 1.0 3.0 0.00 0.00 0.00 36
20260501175837 53 344 1.0 3.0 0.00 0.00 0.00 36
20260501175333 53 38 0.0 3.0 0.00 0.00 0.00 38
20260501174830 53 359 0.0 5.0 0.00 0.00 0.00 37
20260501174327 54 26 1.0 2.0 0.00 0.00 0.00 37
20260501173825 53 343 0.0 5.0 0.00 0.00 0.00 40
20260501173323 53 21 0.0 1.0 0.00 0.00 0.00 39
20260501172818 53 320 0.0 1.0 0.00 0.00 0.00 37
20260501172313 54 45 2.0 5.0 0.00 0.00 0.00 36
20260501171809 54 16 3.0 5.0 0.00 0.00 0.00 36
20260501171306 53 331 4.0 6.0 0.00 0.00 0.00 36
20260501170803 52 39 2.0 5.0 0.00 0.00 0.00 37
20260501170300 53 27 1.0 3.0 0.00 0.00 0.00 39
20260501165757 53 0 1.0 5.0 0.00 0.00 0.00 40
20260501165255 53 80 0.0 0.0 0.00 0.00 0.00 39
20260501164752 52 317 1.0 2.0 0.00 0.00 0.00 42
20260501164249 52 345 0.0 2.0 0.00 0.00 0.00 43
20260501163739 52 43 1.0 3.0 0.00 0.00 0.00 40
20260501163237 52 36 3.0 5.0 0.00 0.00 0.00 42
20260501162733 52 55 2.0 3.0 0.00 0.00 0.00 42
20260501162229 53 347 3.0 5.0 0.00 0.00 0.00 44
20260501161727 53 214 1.0 3.0 0.00 0.00 0.00 43